Location: Angwan Shehu
(11.2514°N, 7.4613°E)
Time: 04:47:47
(UTC+00:00)

Vanguard 3 - Pass Details

Date: 31 July 2021
Orbit: 510 x 3260 km, 33.3° (Epoch: 16 September)

Event Time Altitude Azimuth Distance (km) Brightness Sun altitude
Rises 21:32:38 0° 303° (WNW) 6,979 12.6 -47.7°
Reaches altitude 10° 21:37:41 10° 310° (NW) 6,115 12.1 -48.6°
Maximum altitude 21:56:21 44° 18° (NNE) 3,829 10.4 -51.7°
Enters shadow 22:00:16 41° 44° (NE) 3,818 10.3 -52.3°
